When you browse on this site, cookies collect data to enhance your experience and personalize the content and advertising you see.
Visit our Privacy Policy to learn more. By continuing to use the site, you agree to this use of cookies and data.
  • In United Kingdom
  • List of Countries
  • For 7 days
  • Water Temperature
  • Satellite Maps
  • Weather Map
  • Weather Widgets
  • user-avatar
    Login

    Hourly Weather Cambridge

    Today, 26 June, Wednesday

    Time Temperature Precipitation Wind Pressure Humidity
    00:00 +16°C° 0 mm 3 mps 767 mmHg 92%
    01:00 +16°C° 0 mm 3 mps 767 mmHg 92%
    02:00 +15°C° 0 mm 4 mps 767 mmHg 92%
    03:00 +14°C° 0 mm 4 mps 767 mmHg 92%
    04:00 +14°C° 0 mm 4 mps 768 mmHg 92%
    05:00 +14°C° 0 mm 4 mps 768 mmHg 92%
    06:00 +14°C° 0 mm 5 mps 769 mmHg 92%
    07:00 +15°C° 0 mm 5 mps 769 mmHg 90%
    08:00 +15°C° 0 mm 5 mps 769 mmHg 89%
    09:00 +16°C° 0 mm 5 mps 770 mmHg 88%
    10:00 +16°C° 0 mm 5 mps 770 mmHg 86%
    11:00 +16°C° 0 mm 5 mps 770 mmHg 85%
    12:00 +17°C° 0 mm 5 mps 771 mmHg 84%
    13:00 +17°C° 0 mm 5 mps 771 mmHg 83%
    14:00 +17°C° 0 mm 5 mps 770 mmHg 83%
    15:00 +17°C° 0 mm 6 mps 770 mmHg 82%
    16:00 +16°C° 0 mm 6 mps 770 mmHg 83%
    17:00 +16°C° 0 mm 6 mps 770 mmHg 84%
    18:00 +15°C° 0 mm 5 mps 770 mmHg 85%
    19:00 +14°C° 0 mm 5 mps 770 mmHg 87%
    20:00 +13°C° 0 mm 4 mps 771 mmHg 90%
    21:00 +11°C° 0 mm 4 mps 771 mmHg 93%
    22:00 +11°C° 0 mm 4 mps 771 mmHg 94%
    23:00 +10°C° 0 mm 3 mps 771 mmHg 95%

    Tomorrow, 27 June, Thursday

    Time Temperature Precipitation Wind Pressure Humidity
    00:00 +10°C° 0 mm 3 mps 772 mmHg 97%
    01:00 +10°C° 0 mm 3 mps 771 mmHg 96%
    02:00 +10°C° 0 mm 3 mps 771 mmHg 96%
    03:00 +10°C° 0 mm 4 mps 771 mmHg 96%
    04:00 +10°C° 0 mm 4 mps 771 mmHg 93%
    05:00 +11°C° 0 mm 4 mps 771 mmHg 90%
    06:00 +12°C° 0 mm 4 mps 771 mmHg 86%
    07:00 +14°C° 0 mm 5 mps 771 mmHg 83%
    08:00 +15°C° 0 mm 5 mps 772 mmHg 80%
    09:00 +17°C° 0 mm 5 mps 772 mmHg 76%
    10:00 +19°C° 0 mm 5 mps 772 mmHg 75%
    11:00 +20°C° 0 mm 5 mps 772 mmHg 74%
    12:00 +21°C° 0 mm 5 mps 772 mmHg 73%
    13:00 +21°C° 0 mm 6 mps 771 mmHg 73%
    14:00 +21°C° 0 mm 6 mps 771 mmHg 73%
    15:00 +21°C° 0 mm 6 mps 771 mmHg 73%
    16:00 +20°C° 0 mm 5 mps 771 mmHg 75%
    17:00 +19°C° 0 mm 5 mps 771 mmHg 78%
    18:00 +17°C° 0 mm 5 mps 770 mmHg 80%
    19:00 +17°C° 0 mm 4 mps 770 mmHg 85%
    20:00 +14°C° 0 mm 4 mps 771 mmHg 90%
    21:00 +12°C° 0 mm 4 mps 771 mmHg 95%
    22:00 +11°C° 0 mm 3 mps 770 mmHg 96%
    23:00 +11°C° 0 mm 3 mps 770 mmHg 96%

    Day after tomorrow, 28 June, Friday

    Time Temperature Precipitation Wind Pressure Humidity
    00:00 +10°C° 0 mm 3 mps 770 mmHg 97%
    01:00 +10°C° 0 mm 3 mps 770 mmHg 97%
    02:00 +10°C° 0 mm 3 mps 769 mmHg 97%
    03:00 +10°C° 0 mm 3 mps 769 mmHg 97%
    04:00 +11°C° 0 mm 3 mps 769 mmHg 96%
    05:00 +11°C° 0 mm 4 mps 769 mmHg 94%
    06:00 +12°C° 0 mm 4 mps 769 mmHg 92%
    07:00 +14°C° 0 mm 4 mps 768 mmHg 88%
    08:00 +17°C° 0 mm 4 mps 768 mmHg 83%
    09:00 +17°C° 0 mm 5 mps 768 mmHg 78%
    10:00 +19°C° 0 mm 5 mps 768 mmHg 75%
    11:00 +20°C° 0 mm 5 mps 768 mmHg 72%
    12:00 +21°C° 0 mm 5 mps 767 mmHg 68%
    13:00 +22°C° 0 mm 5 mps 767 mmHg 68%
    14:00 +22°C° 0 mm 5 mps 767 mmHg 68%
    15:00 +22°C° 0 mm 5 mps 766 mmHg 68%
    16:00 +21°C° 0 mm 5 mps 766 mmHg 71%
    17:00 +20°C° 0 mm 5 mps 766 mmHg 73%
    18:00 +19°C° 0 mm 5 mps 765 mmHg 76%
    19:00 +16°C° 0 mm 5 mps 765 mmHg 80%
    20:00 +15°C° 0 mm 4 mps 765 mmHg 83%
    21:00 +13°C° 0 mm 4 mps 765 mmHg 87%
    22:00 +13°C° 0 mm 4 mps 764 mmHg 87%
    23:00 +13°C° 0 mm 4 mps 764 mmHg 87%

    29 June, Saturday

    Time Temperature Precipitation Wind Pressure Humidity
    00:00 +12°C° 0 mm 3 mps 764 mmHg 87%
    01:00 +12°C° 0 mm 3 mps 763 mmHg 90%
    02:00 +12°C° 0 mm 3 mps 763 mmHg 92%
    03:00 +12°C° 0 mm 3 mps 763 mmHg 95%
    04:00 +14°C° 0 mm 3 mps 762 mmHg 93%
    05:00 +15°C° 0 mm 4 mps 762 mmHg 91%
    06:00 +17°C° 0 mm 4 mps 762 mmHg 89%
    07:00 +19°C° 0 mm 4 mps 761 mmHg 85%
    08:00 +20°C° 0 mm 5 mps 761 mmHg 81%
    09:00 +22°C° 0 mm 5 mps 761 mmHg 77%
    10:00 +23°C° 0 mm 5 mps 760 mmHg 74%
    11:00 +25°C° 0 mm 5 mps 760 mmHg 71%
    12:00 +26°C° 0 mm 5 mps 759 mmHg 68%
    13:00 +27°C° 0 mm 5 mps 759 mmHg 67%
    14:00 +27°C° 0 mm 5 mps 758 mmHg 65%
    15:00 +28°C° 0 mm 5 mps 758 mmHg 64%
    16:00 +27°C° 0 mm 4 mps 757 mmHg 68%
    17:00 +26°C° 0 mm 4 mps 757 mmHg 73%
    18:00 +26°C° 0 mm 4 mps 757 mmHg 77%
    19:00 +23°C° 0 mm 4 mps 757 mmHg 81%
    20:00 +22°C° 0 mm 4 mps 757 mmHg 84%
    21:00 +21°C° 0 mm 4 mps 757 mmHg 88%
    22:00 +19°C° 0 mm 4 mps 757 mmHg 89%
    23:00 +17°C° 0 mm 5 mps 757 mmHg 89%

    30 June, Sunday

    Time Temperature Precipitation Wind Pressure Humidity
    00:00 +16°C° 0 mm 5 mps 758 mmHg 90%
    01:00 +14°C° 0 mm 5 mps 758 mmHg 91%
    02:00 +13°C° 0 mm 4 mps 758 mmHg 92%
    03:00 +12°C° 0 mm 4 mps 758 mmHg 94%
    04:00 +13°C° 0 mm 5 mps 758 mmHg 92%
    05:00 +14°C° 0 mm 5 mps 758 mmHg 90%
    06:00 +15°C° 0 mm 5 mps 758 mmHg 88%
    07:00 +16°C° 0 mm 6 mps 759 mmHg 85%
    08:00 +17°C° 0 mm 6 mps 759 mmHg 81%
    09:00 +17°C° 0 mm 6 mps 759 mmHg 78%
    10:00 +19°C° 0 mm 6 mps 759 mmHg 77%
    11:00 +19°C° 0 mm 6 mps 759 mmHg 76%
    12:00 +20°C° 0 mm 6 mps 759 mmHg 75%
    13:00 +20°C° 0.1 mm 6 mps 759 mmHg 74%
    14:00 +21°C° 0.1 mm 6 mps 759 mmHg 74%
    15:00 +21°C° 0.1 mm 6 mps 759 mmHg 73%
    16:00 +21°C° 0.1 mm 6 mps 759 mmHg 75%
    17:00 +21°C° 0.1 mm 6 mps 759 mmHg 78%
    18:00 +20°C° 0.1 mm 6 mps 759 mmHg 80%
    19:00 +19°C° 0.1 mm 5 mps 760 mmHg 83%
    20:00 +16°C° 0.1 mm 5 mps 760 mmHg 85%
    21:00 +15°C° 0.1 mm 4 mps 760 mmHg 88%
    22:00 +14°C° 0 mm 4 mps 760 mmHg 90%
    23:00 +14°C° 0 mm 4 mps 760 mmHg 93%

    1 July, Monday

    Time Temperature Precipitation Wind Pressure Humidity
    00:00 +13°C° 0 mm 4 mps 761 mmHg 95%
    01:00 +12°C° 0 mm 4 mps 761 mmHg 95%
    02:00 +12°C° 0 mm 4 mps 761 mmHg 96%
    03:00 +11°C° 0 mm 3 mps 761 mmHg 96%
    04:00 +12°C° 0 mm 4 mps 761 mmHg 93%
    05:00 +12°C° 0 mm 4 mps 762 mmHg 90%
    06:00 +13°C° 0 mm 4 mps 762 mmHg 86%
    07:00 +14°C° 0 mm 5 mps 762 mmHg 82%
    08:00 +14°C° 0 mm 5 mps 762 mmHg 77%
    09:00 +15°C° 0 mm 5 mps 763 mmHg 72%
    10:00 +16°C° 0 mm 5 mps 763 mmHg 71%
    11:00 +17°C° 0 mm 5 mps 763 mmHg 70%
    12:00 +19°C° 0 mm 5 mps 763 mmHg 69%
    13:00 +19°C° 0 mm 5 mps 763 mmHg 69%
    14:00 +19°C° 0 mm 4 mps 763 mmHg 69%
    15:00 +19°C° 0 mm 4 mps 763 mmHg 70%
    16:00 +19°C° 0.1 mm 4 mps 763 mmHg 72%
    17:00 +18°C° 0.1 mm 3 mps 764 mmHg 74%
    18:00 +18°C° 0.1 mm 3 mps 764 mmHg 77%
    19:00 +17°C° 0 mm 3 mps 764 mmHg 79%
    20:00 +14°C° 0 mm 3 mps 764 mmHg 82%
    21:00 +13°C° 0 mm 3 mps 765 mmHg 84%
    22:00 +12°C° 0 mm 3 mps 765 mmHg 85%
    23:00 +11°C° 0 mm 3 mps 765 mmHg 87%
    Show more